This demonstration page uses our WeatherBlox Daily Observations layout. Learn more.

Left ArrowRight Arrow

39.51506, -84.39828

Hourly Observations for February 24, 2018

Temp ( °F °C ) Dew Point ( °F °C ) Humidity (%) Winds ( mph kmh ) Pressure ( in mb ) Visibility ( mi km ) Precip ( " mm )
12:15 am 00:15 Cloudy 52 10.9 49 9.3 90 90 NNE 9 15 30.21 1023 10 16 0.00 0.00
12:35 am 00:35 Cloudy 51 10.5 48 8.9 90 90 NNE 6 9 30.18 1022 10 16 0.00 0.00
12:55 am 00:55 Cloudy 51 10.4 48 8.9 91 91 NNE 6 9 30.18 1022 10 16 0.00 0.00
1:15 am 01:15 Cloudy 50 10.2 47 8.6 90 90 N 3 6 30.21 1023 10 16 0.00 0.00
1:35 am 01:35 Cloudy 50 9.9 47 8.4 90 90 NNE 7 11 30.21 1023 10 16 0.00 0.00
1:55 am 01:55 Cloudy 49 9.7 47 8.4 92 92 N 7 11 30.21 1023 10 16 0.00 0.00
2:15 am 02:15 Cloudy 49 9.6 47 8.1 90 90 N 10 17 30.18 1022 10 16 0.00 0.00
2:35 am 02:35 Cloudy 49 9.3 46 8 92 92 NNE 12 19 30.18 1022 7 11 0.00 0.00
2:55 am 02:55 Cloudy 48 8.9 46 7.9 94 94 NNE 7 11 30.18 1022 7 11 0.01 0.25
3:15 am 03:15 Cloudy 48 9 46 7.8 92 92 ESE 5 7 30.21 1023 10 16 0.00 0.00
3:35 am 03:35 Cloudy 48 8.8 46 7.7 93 93 NNE 6 9 30.18 1022 10 16 0.00 0.00
3:55 am 03:55 Cloudy 48 8.7 46 7.7 94 94 NNE 5 7 30.18 1022 10 16 0.00 0.00
4:15 am 04:15 Cloudy 47 8.6 46 7.8 95 95 N 5 7 30.18 1022 7 11 0.00 0.00
4:35 am 04:35 Cloudy 47 8.6 46 7.8 95 95 NE 6 9 30.15 1021 7 11 0.00 0.00
4:55 am 04:55 Cloudy 47 8.6 46 7.8 95 95 NNE 9 15 30.18 1022 7 11 0.00 0.00
5:15 am 05:15 Cloudy 47 8.4 45 7.4 94 94 NNE 9 15 30.18 1022 7 11 0.00 0.00
5:35 am 05:35 Cloudy 47 8.1 45 7.2 94 94 N 9 15 30.18 1022 7 11 0.00 0.00
5:55 am 05:55 Cloudy 46 7.8 44 6.8 93 93 NNE 9 15 30.18 1022 7 11 0.00 0.00
6:15 am 06:15 Cloudy 46 7.7 44 6.6 93 93 NNE 9 15 30.18 1022 10 16 0.00 0.00
6:35 am 06:35 Cloudy 46 7.7 44 6.7 93 93 NNE 5 7 30.18 1022 7 11 0.01 0.25
6:55 am 06:55 Cloudy 46 7.6 44 6.8 95 95 NE 8 13 30.15 1021 5 8 0.02 0.51
7:15 am 07:15 Cloudy 46 7.6 44 6.9 95 95 ENE 9 15 30.12 1020 7 11 0.00 0.00
7:35 am 07:35 Cloudy 46 7.7 44 6.9 95 95 NE 9 15 30.12 1020 5 8 0.00 0.00
7:55 am 07:55 Cloudy 46 7.8 45 7 95 95 ENE 8 13 30.12 1020 4 6 0.01 0.25
8:15 am 08:15 Cloudy 46 7.9 45 7.1 95 95 NE 7 11 30.12 1020 4 6 0.01 0.25
8:35 am 08:35 Cloudy 46 7.9 45 7.2 95 95 Calm 30.18 1022 2 2 0.09 2.29
8:55 am 08:55 Cloudy 46 7.8 45 7.3 97 97 NE 5 7 30.15 1021 2 3 0.16 4.06
9:15 am 09:15 Cloudy 46 7.9 45 7.4 97 97 N 6 9 30.15 1021 3 5 0.02 0.51
9:35 am 09:35 Cloudy 46 8 46 7.5 97 97 NE 7 11 30.15 1021 3 4 0.05 1.27
9:55 am 09:55 Cloudy 46 7.9 45 7.3 96 96 NNE 8 13 30.12 1020 2 3 0.08 2.03
10:15 am 10:15 Cloudy 46 7.9 45 7.3 96 96 E 3 6 30.15 1021 2 3 0.05 1.27
10:35 am 10:35 Cloudy 47 8.1 46 7.6 97 97 NE 7 11 30.12 1020 3 5 0.13 3.30
10:55 am 10:55 Cloudy 47 8.3 46 7.7 96 96 NNE 5 7 30.15 1021 7 11 0.14 3.56
11:15 am 11:15 Cloudy 47 8.3 46 7.6 95 95 NNE 6 9 30.15 1021 5 8 0.02 0.51
11:35 am 11:35 Cloudy 48 8.8 47 8.1 95 95 ENE 7 11 30.12 1020 10 16 0.03 0.76
11:55 am 11:55 Cloudy 48 8.9 47 8.1 95 95 NE 8 13 30.12 1020 10 16 0.03 0.76
12:15 pm 12:15 Cloudy 49 9.3 47 8.3 94 94 ENE 9 15 30.09 1019 10 16 0.00 0.00
12:35 pm 12:35 Cloudy 49 9.6 47 8.5 93 93 ENE 10 17 30.06 1018 10 16 0.00 0.00
12:55 pm 12:55 Cloudy 50 9.9 47 8.5 91 91 E 9 15 30.06 1018 10 16 0.00 0.00
1:15 pm 13:15 Cloudy 50 10.2 47 8.6 90 90 E 10 17 30.03 1017 10 16 0.00 0.00
1:35 pm 13:35 Cloudy 51 10.4 47 8.6 89 89 ESE 12 19 30.00 1016 10 16 0.00 0.00
1:55 pm 13:55 Cloudy 51 10.5 47 8.6 88 88 E 9 15 30.00 1016 10 16 0.00 0.00
2:15 pm 14:15 Cloudy 51 10.8 48 8.7 87 87 ESE 9 15 30.00 1016 10 16 0.00 0.00
2:35 pm 14:35 Cloudy 51 10.7 47 8.6 87 87 E 9 15 30.00 1016 10 16 0.00 0.00
2:55 pm 14:55 Cloudy 52 10.9 48 8.9 88 88 ENE 9 15 29.97 1015 10 16 0.00 0.00
3:15 pm 15:15 Cloudy 51 10.8 48 9 89 89 ENE 8 13 29.97 1015 10 16 0.00 0.00
3:35 pm 15:35 Cloudy 52 10.9 49 9.2 89 89 ENE 9 15 29.97 1015 10 16 0.00 0.00
3:55 pm 15:55 Cloudy 52 10.9 49 9.2 89 89 E 7 11 29.97 1015 10 16 0.00 0.00
4:15 pm 16:15 Cloudy 51 10.7 49 9.4 92 92 E 8 13 29.97 1015 7 11 0.01 0.25
4:35 pm 16:35 Cloudy 51 10.5 49 9.5 94 94 E 7 11 29.97 1015 3 5 0.07 1.78
4:55 pm 16:55 Cloudy 51 10.3 49 9.4 94 94 NE 9 15 29.97 1015 10 16 0.09 2.29
5:15 pm 17:15 Cloudy 50 10.2 49 9.5 95 95 ENE 7 11 29.97 1015 5 8 0.01 0.25
5:35 pm 17:35 Cloudy 50 10.1 49 9.5 96 96 ENE 10 17 29.91 1013 4 6 0.08 2.03
5:55 pm 17:55 Cloudy 50 10.2 49 9.5 95 95 E 6 9 29.91 1013 10 16 0.09 2.29
6:15 pm 18:15 Cloudy 51 10.3 49 9.6 95 95 E 3 6 29.94 1014 3 4 0.04 1.02
6:55 pm 18:55 Cloudy 51 10.3 50 9.8 97 97 E 3 6 29.91 1013 4 6 0.19 4.83
7:15 pm 19:15 Cloudy 50 10.1 49 9.7 97 97 NE 10 17 29.88 1012 5 8 0.05 1.27
7:35 pm 19:35 Cloudy 50 10.2 50 9.8 97 97 NE 6 9 29.88 1012 7 11 0.06 1.52
7:55 pm 19:55 Cloudy 50 10.2 50 9.8 97 97 NE 5 7 29.88 1012 5 8 0.07 1.78
8:15 pm 20:15 Cloudy 50 10.2 50 9.8 97 97 NE 3 6 29.88 1012 7 11 0.02 0.51
8:35 pm 20:35 Cloudy 51 10.3 50 10 98 98 N 3 6 29.85 1011 3 4 0.10 2.54
8:55 pm 20:55 Cloudy 51 10.3 50 10.1 99 99 ENE 3 6 29.85 1011 4 6 0.18 4.57
9:15 pm 21:15 Cloudy 51 10.3 50 10.1 99 99 NE 3 6 29.85 1011 4 6 0.05 1.27
9:35 pm 21:35 Cloudy 51 10.4 51 10.3 99 99 NNE 5 7 29.83 1010 4 6 0.10 2.54
9:55 pm 21:55 Cloudy 51 10.7 51 10.4 98 98 NNE 5 7 29.83 1010 5 8 0.14 3.56
10:15 pm 22:15 Cloudy 51 10.7 51 10.4 98 98 NE 5 7 29.80 1009 3 4 0.12 3.05
10:35 pm 22:35 Cloudy 51 10.7 51 10.4 98 98 NNE 6 9 29.80 1009 2 3 0.32 8.13
10:55 pm 22:55 Cloudy 51 10.8 51 10.6 99 99 NE 8 13 29.77 1008 4 6 0.47 11.94
11:15 pm 23:15 Cloudy 52 11.1 51 10.8 98 98 NW 7 11 29.80 1009 4 6 0.23 5.84
11:35 pm 23:35 Cloudy 53 11.8 52 11.3 97 97 SE 3 6 29.77 1008 7 11 0.27 6.86
11:55 pm 23:55 Cloudy 53 11.6 52 11.1 97 97 N 3 6 29.77 1008 7 11 0.31 7.87

Powered by AerisWeather